This demonstration page uses our WeatherBlox Daily Observations layout. Learn more.

Left ArrowRight Arrow

Hourly Observations for March 5, 2022

Temp ( °F °C ) Dew Point ( °F °C ) Humidity (%) Winds ( mph kmh ) Pressure ( in mb ) Visibility ( mi km ) Precip ( " mm )
12:56 am 00:56 Mostly Cloudy 43 6.1 30 -1.1 60 60 N 15 24 29.68 1005 10 16 0.00 0.00
1:56 am 01:56 Mostly Cloudy 42 5.6 29 -1.7 60 60 NNE 21 33 29.67 1005 10 16 0.00 0.00
2:56 am 02:56 Mostly Cloudy with Light Rain 40 4.4 33 0.6 77 77 N 18 30 29.65 1004 10 16 0.00 0.00
3:56 am 03:56 Clear 37 2.8 31 -0.6 79 79 N 16 26 29.67 1005 10 16 0.00 0.00
4:56 am 04:56 Mostly Clear 34 1.1 29 -1.7 82 82 N 16 26 29.67 1005 10 16 0.00 0.00
5:33 am 05:33 Cloudy 36 2 28 -2 75 75 N 20 31 29.73 1007 10 16 0.00 0.00
5:56 am 05:56 Cloudy 35 1.7 29 -1.7 78 78 N 16 26 29.68 1005 10 16 0.00 0.00
6:56 am 06:56 Cloudy 34 1.1 28 -2.2 79 79 N 21 33 29.67 1005 10 16 0.00 0.00
7:56 am 07:56 Cloudy 34 1.1 28 -2.2 79 79 N 24 39 29.66 1004 9 14 0.00 0.00
8:27 am 08:27 Cloudy with Light Wintry Mix 32 0 30 -1 93 93 N 21 33 29.73 1007 3 4 0.00 0.00
8:42 am 08:42 Cloudy with Light Wintry Mix 32 0 30 -1 93 93 N 21 33 29.73 1007 3 5 0.00 0.00
8:56 am 08:56 Cloudy with Light Wintry Mix 32 0 30 -1.1 92 92 N 22 35 29.65 1004 3 5 0.00 0.00
9:56 am 09:56 Cloudy with Mist and Fog 32 0 30 -1.1 92 92 N 23 37 29.67 1005 3 5 0.00 0.00
10:06 am 10:06 Cloudy with Light Wintry Mix 32 0 30 -1 93 93 N 25 41 29.74 1007 2 3 0.00 0.00
10:13 am 10:13 Cloudy with Light Wintry Mix 32 0 30 -1 93 93 N 22 35 29.74 1007 2 2 0.00 0.00
10:33 am 10:33 Windy with Snow Likely 32 0 30 -1 93 93 N 22 35 29.74 1007 1 2 0.00 0.00
10:41 am 10:41 Cloudy with Light Wintry Mix 32 0 30 -1 93 93 N 25 41 29.74 1007 1 2 0.00 0.00
10:56 am 10:56 Windy with Snow Likely 32 0 30 -1.1 92 92 N 24 39 29.67 1005 1 2 0.00 0.00
11:31 am 11:31 Cloudy with Light Wintry Mix 32 0 30 -1 93 93 N 25 41 29.73 1007 3 4 0.00 0.00
11:38 am 11:38 Cloudy with Light Wintry Mix 32 0 30 -1 93 93 N 21 33 29.73 1007 3 5 0.00 0.00
11:46 am 11:46 Cloudy with Mist and Fog 32 0 30 -1 93 93 N 25 41 29.73 1007 3 4 0.00 0.00
11:56 am 11:56 Cloudy with Mist and Fog 32 0 30 -1.1 92 92 N 25 41 29.67 1005 3 4 0.00 0.00
12:23 pm 12:23 Windy with Snow Likely 32 0 30 -1 93 93 NNW 20 31 29.77 1008 2 3 0.00 0.00
12:44 pm 12:44 Cloudy with Nearby Thunderstorms 32 0 30 -1 93 93 NNW 16 26 29.79 1009 1 2 0.01 0.25
12:56 pm 12:56 Windy with Snow Likely 32 0 30 -1.1 92 92 NNW 20 31 29.71 1006 1 2 0.01 0.25
1:08 pm 13:08 Windy with Snow Likely 32 0 30 -1 93 93 NNW 21 33 29.77 1008 2 3 0.01 0.25
1:14 pm 13:14 Windy with Snow Likely 32 0 30 -1 93 93 N 23 37 29.77 1008 3 5 0.01 0.25
1:56 pm 13:56 Windy with Snow Likely 32 0 30 -1.1 92 92 NNW 21 33 29.72 1006 5 8 0.01 0.25
2:10 pm 14:10 Windy with Snow Likely 30 -1 28 -2 93 93 N 24 39 29.79 1009 9 14 0.00 0.00
2:38 pm 14:38 Cloudy 30 -1 28 -2 93 93 NNW 26 43 29.81 1009 9 14 0.00 0.00
2:56 pm 14:56 Cloudy 31 -0.6 28 -2.2 89 89 NW 25 41 29.77 1008 10 16 0.00 0.00
3:56 pm 15:56 Cloudy 30 -1.1 26 -3.3 85 85 NW 21 33 29.83 1010 10 16 0.00 0.00
4:17 pm 16:17 Windy with Snow Likely 30 -1 27 -3 86 86 NW 26 43 29.90 1012 9 14 0.00 0.00
4:46 pm 16:46 Windy with Snow Likely 28 -2 27 -3 93 93 NW 25 41 29.93 1013 9 14 0.00 0.00
4:56 pm 16:56 Windy with Snow Likely 29 -1.7 26 -3.3 89 89 NW 20 31 29.88 1012 5 8 0.00 0.00
5:05 pm 17:05 Cloudy with Light Snow 28 -2 27 -3 93 93 NW 17 28 29.94 1014 2 3 0.00 0.00
5:12 pm 17:12 Windy with Snow Likely 28 -2 27 -3 93 93 NW 21 33 29.94 1014 2 3 0.00 0.00
5:20 pm 17:20 Windy with Snow Likely 28 -2 27 -3 93 93 NW 20 31 29.95 1014 2 3 0.00 0.00
5:27 pm 17:27 Cloudy with Light Snow 28 -2 27 -3 93 93 NW 18 30 29.96 1014 2 2 0.00 0.00
5:38 pm 17:38 Windy with Snow Likely 28 -2 27 -3 93 93 NW 23 37 29.97 1015 2 3 0.00 0.00
5:43 pm 17:43 Windy with Snow Likely 28 -2 25 -4 86 86 NNW 26 43 29.97 1015 4 6 0.00 0.00
5:56 pm 17:56 Mostly Cloudy with Light Snow 28 -2.2 25 -3.9 88 88 NW 21 33 29.93 1013 8 13 0.00 0.00
6:05 pm 18:05 Partly Cloudy with Scattered Snow Showers 28 -2 25 -4 86 86 NW 20 31 30.00 1016 9 14 0.00 0.00
6:24 pm 18:24 Mostly Cloudy 28 -2 25 -4 86 86 NW 15 24 30.01 1016 10 16 0.00 0.00
6:47 pm 18:47 Mostly Cloudy 27 -3 25 -4 93 93 NW 20 31 30.03 1017 10 16 0.00 0.00
6:56 pm 18:56 Mostly Cloudy 27 -2.8 23 -5 85 85 NW 17 28 29.97 1015 10 16 0.00 0.00
7:04 pm 19:04 Mostly Clear 27 -3 23 -5 86 86 NW 15 24 30.04 1017 10 16 0.00 0.00
7:56 pm 19:56 Clear 25 -3.9 22 -5.6 88 88 NW 17 28 30.00 1016 10 16 0.00 0.00
8:53 pm 20:53 Mostly Cloudy 25 -4 21 -6 86 86 NW 14 22 30.09 1019 10 16 0.00 0.00
8:56 pm 20:56 Mostly Cloudy 25 -3.9 22 -5.6 88 88 NW 15 24 30.02 1017 10 16 0.00 0.00
9:41 pm 21:41 Cloudy 25 -4 21 -6 86 86 NW 24 39 30.12 1020 10 16 0.00 0.00
9:56 pm 21:56 Mostly Cloudy 25 -3.9 20 -6.7 81 81 NW 15 24 30.06 1018 10 16 0.00 0.00
10:56 pm 22:56 Clear 22 -5.6 18 -7.8 85 85 NNW 16 26 30.08 1019 10 16 0.00 0.00
11:56 pm 23:56 Clear 21 -6.1 16 -8.9 81 81 NNW 17 28 30.09 1019 10 16 0.00 0.00

Powered by AerisWeather